OPS 4682 DEB, 38434

Orbit data source: Space-Track

OPS 4682 DEB, 38434 is space debris in LEO originally from a launch on Sat, 03 Apr 1965 UTC launched from the Air Force Western Test Range (AFWTR). Debris objects in space refer to the collection of defunct objects orbiting the Earth. Examples of debris include non-operational satellites, rocket bodies, and fragments generated from explosions, collisions, or faulty payload assembly.

Loading next visibility...
Identifier
38434, 1965-027EP
Orbit
LEO
Country
Flag of USUS
Related business
Manufacturer
Unknown
Mission
Spacecraft
Bus & Motor
Unknown
Mass
Unknown
Launch date (UTC)
1965-04-03 (61 years ago)
Launch vehicle
Unknown
Launch site
Air Force Western Test Range (AFWTR)
Object type
Payload
Rocket body
Debris
Shape & HBR
Unknown shape, 0.1 m
Radar Cross Section
Small (<0.1 m²)

Expand to show TLE details & history
Last TLE update: 1 day ago

TLE from 1 day ago
0 OPS 4682 DEB
1 38434U 65027EP  25302.58499289  .00000288  00000-0  96801-3 0  9993
2 38434  90.2435   0.8303 0033826  93.3395 267.1596 12.97182095632613
Epoch: 2025-10-29T14:02Z
TLE epoch observation values (Epoch: 2025-10-29T14:02:23.385Z)
Latitude
-0.00003°
Longitude
112.07684°
Altitude
1,277.397 km
Speed
7.216 km/s
True Right ascension
00h 03m 19s
True Declination
0° 00' 00"
Sunlit
Object was in full shadow at epoch
Visualization orbit readout
Latitude
Unknown
Longitude
Unknown
Altitude
Unknown
Speed
Unknown
Apparent Right ascension
Unknown
Apparent Declination
Unknown
Sunlit
N/A
Visualization observer readout
Local Sidereal Time
14:50:38
Azimuth
Unknown
Elevation
Unknown
Doppler factor
Unknown
Orbital elements
Apogee altitude
1,296.15 km
Perigee altitude
1,244.407 km
Semi-major axis
7,648.415 km
Eccentricity
0.00338
Inclination
90.2435°
RAAN
0.8303°
Arg. of periapsis
93.3395°
True anomaly
266.77254°
Mean anomaly
267.1596°
Eccentric anomaly
266.96606°
Mean motion
3.24479 °/min
Orbital period
110.95 mins
BSTAR
0.00096801
Loading maneuver chart data...
Computing Atmospheric mass density...
Loading historical data...
Loading historical data...
Loading historical data...
Loading historical data...
Loading historical data...
Loading historical data...
Loading historical data...

Documentation

Showing up to 5 results
|